Погода в Любимовке

Украина / Запорожская область     47°58′06″N   35°22′11″E
темп.,
°C
ветер,
м/с
пор.,
м/с
влажн.,
%
обл.,
%
осадки,
мм/ч
давл.,
гПа
погр.,
м
5 декабря, вс
вс523:00+1всв5988100 0.1 1012460
02:000ссв598999 0.1 1012340
05:000ссв4990100 0.0 1011334
08:00−1ссв479291 0.0 1013273
11:00+2св457632 0.0 1013430
14:00+4св336989 0.0 1014540
17:00+2всв3479100 0.0 101570
20:00+1вюв3484100 0.0 101687
6 декабря, пн
пн623:00+1юв2392100 0.0 101636
02:00+1юв2394100 0.0 101751
05:000юв3594100 0.0 101696
08:00+1юв4793100 0.0 1017188
11:00+4ююв4882100 0.1 1017277
14:00+5юв3887100 0.2 1016280
17:00+5юв61289100 0.1 1016313
20:00+5юв61393100 0.1 1015329
7 декабря, вт
вт723:00+6юв61295100 0.0 1015270
02:00+7ююв51394100 0.0 1014297
05:00+8ююв51292100 0.1 1013253
08:00+9ююв61290100 0.8 1013289
11:00+10ююв51081100 0.1 1013307
14:00+11ююв41070100 0.1 1011349
17:00+9юв4776100 0.0 1011120
20:00+7юв4881100 0.0 1010146
8 декабря, ср
ср823:00+7юв4980100 0.0 1009157
02:00+7вюв4977100 0.0 1008161
05:00+6вюв41082100 0.0 1006204
08:00+6в51183100 0.0 1006211
11:00+10вюв51265100 0.0 1005461
14:00+11юв51162100 0.0 1004526
17:00+9юв51174100 0.0 1005304
20:00+9юв61178100 0.0 1005343
9 декабря, чт
чт923:00+7ююв389398 0.0 1006181
02:00+7ююв41192100 0.1 1007350
05:00+8ююв61195100 0.3 1007517
08:00+7юз61193100 0.5 1009564
11:00+8юз61094100 0.3 1011482
14:00+8з588795 0.6 1014588
17:00+7зюз4684100 0.0 1016556
20:00+6юз468094 0.0 1018420